TimeEDT,TemperatureF,Dew PointF,Humidity,Sea Level PressureIn,VisibilityMPH,Wind Direction,Wind SpeedMPH,Gust SpeedMPH,PrecipitationIn,Events,Conditions,WindDirDegrees,DateUTC
12:15 AM,28.4,13.1,53,30.10,10.0,West,10.4,-,N/A,,Clear,280,2013-04-02 04:15:00
12:35 AM,28.4,13.6,54,30.10,10.0,West,6.9,-,N/A,,Clear,270,2013-04-02 04:35:00
12:55 AM,28.2,13.8,55,30.10,10.0,West,9.2,16.1,N/A,,Clear,280,2013-04-02 04:55:00
1:15 AM,27.9,14.0,56,30.10,10.0,West,4.6,-,N/A,,Clear,270,2013-04-02 05:15:00
1:35 AM,27.5,14.0,57,30.10,10.0,WSW,5.8,-,N/A,,Clear,250,2013-04-02 05:35:00
1:55 AM,27.3,14.0,57,30.10,10.0,West,6.9,-,N/A,,Clear,260,2013-04-02 05:55:00
2:15 AM,26.8,14.0,59,30.10,10.0,WSW,4.6,-,N/A,,Clear,250,2013-04-02 06:15:00
2:35 AM,26.4,14.0,59,30.10,10.0,WSW,4.6,-,N/A,,Clear,250,2013-04-02 06:35:00
2:54 AM,26.2,13.8,59,30.10,10.0,WSW,3.5,-,N/A,,Scattered Clouds,240,2013-04-02 06:54:00
3:15 AM,25.7,14.0,61,30.10,10.0,WSW,4.6,-,N/A,,Clear,250,2013-04-02 07:15:00
3:34 AM,25.7,14.0,61,30.10,10.0,West,5.8,-,N/A,,Clear,260,2013-04-02 07:34:00
3:55 AM,25.7,14.0,61,30.10,10.0,WSW,4.6,-,N/A,,Clear,250,2013-04-02 07:55:00
4:15 AM,25.5,14.2,62,30.10,10.0,West,5.8,-,N/A,,Clear,260,2013-04-02 08:15:00
4:34 AM,25.7,14.9,64,30.10,10.0,West,4.6,-,N/A,,Clear,260,2013-04-02 08:34:00
4:55 AM,26.1,15.4,64,30.11,10.0,West,4.6,-,N/A,,Clear,270,2013-04-02 08:55:00
5:15 AM,25.7,15.8,66,30.10,10.0,West,4.6,-,N/A,,Clear,270,2013-04-02 09:15:00
5:35 AM,25.7,16.3,68,30.11,10.0,West,4.6,-,N/A,,Clear,260,2013-04-02 09:35:00
5:55 AM,25.5,16.7,69,30.11,10.0,West,3.5,-,N/A,,Clear,270,2013-04-02 09:55:00
6:15 AM,25.7,17.2,70,30.12,10.0,West,6.9,-,N/A,,Clear,280,2013-04-02 10:15:00
6:35 AM,25.5,17.4,71,30.13,10.0,WNW,8.1,-,N/A,,Clear,290,2013-04-02 10:35:00
6:55 AM,25.3,17.6,72,30.13,10.0,WNW,5.8,-,N/A,,Clear,290,2013-04-02 10:55:00
7:15 AM,25.0,17.6,74,30.14,10.0,WNW,8.1,-,N/A,,Clear,290,2013-04-02 11:15:00
7:35 AM,25.2,18.0,74,30.15,10.0,WNW,8.1,-,N/A,,Clear,300,2013-04-02 11:35:00
7:55 AM,25.3,18.1,74,30.17,10.0,WNW,8.1,-,N/A,,Clear,290,2013-04-02 11:55:00
8:14 AM,25.7,17.6,71,30.17,10.0,West,8.1,-,N/A,,Clear,280,2013-04-02 12:14:00
8:35 AM,26.6,17.2,68,30.17,10.0,WNW,5.8,-,N/A,,Clear,290,2013-04-02 12:35:00
8:55 AM,27.3,15.6,61,30.17,10.0,WNW,5.8,-,N/A,,Clear,290,2013-04-02 12:55:00
9:15 AM,28.6,13.6,54,30.17,10.0,West,6.9,-,N/A,,Clear,280,2013-04-02 13:15:00
9:35 AM,29.7,12.6,49,30.17,10.0,West,6.9,-,N/A,,Clear,270,2013-04-02 13:35:00
9:55 AM,30.9,12.6,47,30.17,10.0,West,10.4,-,N/A,,Clear,260,2013-04-02 13:55:00
10:35 AM,32.5,11.3,41,30.17,10.0,West,17.3,21.9,N/A,,Clear,280,2013-04-02 14:35:00
10:55 AM,33.6,10.8,39,30.17,10.0,West,15.0,20.7,N/A,,Scattered Clouds,270,2013-04-02 14:55:00
11:15 AM,33.4,9.9,37,30.17,10.0,West,18.4,21.9,N/A,,Mostly Cloudy,280,2013-04-02 15:15:00
11:35 AM,34.2,10.2,37,30.17,10.0,West,17.3,25.3,N/A,,Mostly Cloudy,260,2013-04-02 15:35:00
11:55 AM,35.6,10.4,35,30.17,10.0,West,11.5,23.0,N/A,,Mostly Cloudy,270,2013-04-02 15:55:00
12:15 PM,35.1,10.6,36,30.17,10.0,WNW,12.7,18.4,N/A,,Mostly Cloudy,290,2013-04-02 16:15:00
12:35 PM,36.3,10.9,35,30.17,10.0,WNW,17.3,25.3,N/A,,Mostly Cloudy,290,2013-04-02 16:35:00
12:54 PM,36.5,11.1,35,30.17,10.0,West,9.2,23.0,N/A,,Mostly Cloudy,270,2013-04-02 16:54:00
1:15 PM,37.4,11.3,34,30.16,10.0,West,17.3,25.3,N/A,,Mostly Cloudy,280,2013-04-02 17:15:00
1:35 PM,37.2,11.1,34,30.16,10.0,WSW,13.8,24.2,N/A,,Overcast,250,2013-04-02 17:35:00
1:54 PM,38.8,11.7,33,30.15,10.0,West,13.8,23.0,N/A,,Overcast,270,2013-04-02 17:54:00
2:15 PM,37.4,11.3,34,30.15,10.0,WNW,15.0,21.9,N/A,,Mostly Cloudy,290,2013-04-02 18:15:00
2:34 PM,37.9,10.8,33,30.15,10.0,West,11.5,21.9,N/A,,Mostly Cloudy,280,2013-04-02 18:34:00
2:55 PM,39.6,10.0,30,30.14,10.0,WNW,12.7,20.7,N/A,,Mostly Cloudy,300,2013-04-02 18:55:00
3:15 PM,38.1,10.2,32,30.14,10.0,NW,11.5,26.5,N/A,,Mostly Cloudy,310,2013-04-02 19:15:00
3:34 PM,39.9,10.8,30,30.13,10.0,West,15.0,21.9,N/A,,Mostly Cloudy,280,2013-04-02 19:34:00
3:55 PM,40.5,10.2,29,30.13,10.0,NW,19.6,24.2,N/A,,Mostly Cloudy,310,2013-04-02 19:55:00
4:15 PM,39.2,10.4,31,30.13,10.0,NW,12.7,-,N/A,,Mostly Cloudy,320,2013-04-02 20:15:00
4:35 PM,39.2,9.5,29,30.13,10.0,WNW,16.1,19.6,N/A,,Mostly Cloudy,290,2013-04-02 20:35:00
4:55 PM,39.4,10.9,31,30.13,10.0,WNW,17.3,24.2,N/A,,Mostly Cloudy,290,2013-04-02 20:55:00
5:15 PM,39.0,10.8,31,30.13,10.0,NW,13.8,19.6,N/A,,Mostly Cloudy,320,2013-04-02 21:15:00
5:35 PM,38.7,11.8,33,30.14,10.0,WNW,10.4,23.0,N/A,,Overcast,300,2013-04-02 21:35:00
5:48 PM,38.8,11.5,33,30.15,10.0,NW,15.0,21.9,N/A,,Mostly Cloudy,310,2013-04-02 21:48:00
6:21 PM,39.0,10.6,31,30.15,10.0,West,15.0,23.0,N/A,,Mostly Cloudy,280,2013-04-02 22:21:00
6:35 PM,38.7,10.0,31,30.15,10.0,West,9.2,21.9,N/A,,Mostly Cloudy,280,2013-04-02 22:35:00
6:55 PM,38.3,10.4,32,30.16,10.0,WNW,12.7,19.6,N/A,,Scattered Clouds,290,2013-04-02 22:55:00
7:15 PM,38.5,9.5,30,30.16,10.0,WNW,15.0,18.4,N/A,,Mostly Cloudy,290,2013-04-02 23:15:00
7:35 PM,38.1,9.5,31,30.17,10.0,WNW,16.1,-,N/A,,Mostly Cloudy,290,2013-04-02 23:35:00
7:55 PM,37.4,10.2,33,30.18,10.0,NW,13.8,20.7,N/A,,Mostly Cloudy,310,2013-04-02 23:55:00
8:15 PM,36.5,10.0,34,30.18,10.0,NW,11.5,-,N/A,,Scattered Clouds,310,2013-04-03 00:15:00
8:35 PM,36.1,10.0,34,30.19,10.0,WNW,11.5,16.1,N/A,,Scattered Clouds,290,2013-04-03 00:35:00
8:54 PM,35.6,10.2,35,30.19,10.0,WNW,8.1,-,N/A,,Clear,300,2013-04-03 00:54:00
9:15 PM,35.2,10.2,35,30.20,10.0,NW,8.1,-,N/A,,Clear,310,2013-04-03 01:15:00
9:35 PM,34.7,10.2,36,30.22,10.0,WNW,9.2,-,N/A,,Clear,300,2013-04-03 01:35:00
9:54 PM,34.7,9.7,35,30.22,10.0,WNW,10.4,19.6,N/A,,Clear,300,2013-04-03 01:54:00
10:15 PM,34.0,9.1,36,30.23,10.0,NW,10.4,19.6,N/A,,Clear,320,2013-04-03 02:15:00
10:34 PM,33.4,9.1,36,30.24,10.0,NW,9.2,16.1,N/A,,Clear,320,2013-04-03 02:34:00
10:55 PM,32.9,9.1,37,30.24,10.0,NW,9.2,-,N/A,,Clear,310,2013-04-03 02:55:00
11:15 PM,32.5,9.3,38,30.25,10.0,NW,8.1,-,N/A,,Clear,310,2013-04-03 03:15:00
11:34 PM,32.0,9.5,39,30.25,10.0,NW,6.9,-,N/A,,Clear,320,2013-04-03 03:34:00
11:55 PM,32.0,9.5,39,30.25,10.0,NW,4.6,-,N/A,,Clear,320,2013-04-03 03:55:00